Home   Weather   Tarnów   Past weeks

Flag for Poland Past Weather in Tarnów, Poland — Yesterday and Last 2 Weeks

Now
48 °F

Cool.


Feels Like: 48 °F
Forecast: 36 / 60 °F
Wind: 2 mph from Northeast

Location: Tarnow

Current Time: Apr 30, 2017 at 11:17:39 am

Latest Report: Apr 30, 2017 at 10:00 am


Visibility: 19 mi

Pressure: 30.17 "Hg

Humidity: 69%

Dew Point: 38 °F

Location of TarnówLocation

Past Weather in Tarnów — Graph

°F

Tarnów Temperature Yesterday

Maximum temperature yesterday: 54 °F (at 4:00 pm)
Minimum temperature yesterday: 37 °F (at 11:00 pm)
Average temperature yesterday: 45 °F

High & Low Weather Summary for the Past Weeks

 TemperatureHumidityPressure
High68 °F (Apr 25, 1:00 pm)100% (Apr 26, 4:00 am)30.42 "Hg (Apr 26, 4:00 am)
Low24 °F (Apr 21, 6:00 am)38% (Apr 22, 6:00 pm)29.71 "Hg (Apr 25, 1:00 pm)
Average43 °F75%30.00 "Hg
* Reported Apr 15 10:00 am — Apr 30 10:00 am, Tarnów, Weather by CustomWeather, © 2017

Note: Actual official high and low records may vary slightly from our data, if they occured in-between our weather recording intervals... More about our weather records

Advertising

Tarnów Weather History for the Previous 24 Hours

Scroll right to see more
 ConditionsComfort  
Time TempWeatherWind HumidityBarometerVisibility
10:00 am
Sun, Apr 30
48 °FCool.2 mph69%30.17 "Hg19 mi
9:00 am46 °FCool.2 mph88%30.18 "Hg6 mi
8:00 am40 °FFog.1 mph100%30.17 "Hg2 mi
7:00 am38 °FFog.1 mph100%30.17 "Hg1 mi
6:00 am33 °FFog.No wind100%30.16 "Hg1 mi
5:00 am33 °FFog.1 mph98%30.15 "Hg1 mi
4:00 am35 °FFog.1 mph98%30.13 "Hg1 mi
3:00 am37 °FFog.1 mph97%30.12 "Hg1 mi
2:00 am39 °FFog.1 mph98%30.11 "Hg1 mi
1:00 am39 °FFog.No wind100%30.10 "Hg2 mi
12:00 am38 °FFog.1 mph98%30.09 "Hg2 mi
11:00 pm
Sat, Apr 29
37 °FFog.1 mph92%30.09 "Hg2 mi
10:00 pm40 °FFog.No wind85%30.09 "Hg5 mi
9:00 pm44 °FQuite cool.No wind79%30.09 "Hg6 mi
8:00 pm48 °FCool.1 mph69%30.06 "Hg8 mi
7:00 pm50 °FCool.2 mph64%30.04 "Hg12 mi
6:00 pm52 °FCool.1 mph53%30.04 "Hg22 mi
5:00 pm52 °FCool.2 mph51%30.04 "Hg22 mi
4:00 pm54 °FCool.1 mph50%30.04 "Hg19 mi
3:00 pm52 °FCool.2 mph57%30.05 "Hg22 mi
2:00 pm50 °FCool.2 mph58%30.05 "Hg25 mi
1:00 pm47 °FCool.2 mph67%30.06 "Hg25 mi
12:00 pm46 °FCool.2 mph72%30.06 "Hg22 mi
11:00 am44 °FQuite cool.2 mph77%30.05 "Hg22 mi
Weather by CustomWeather, © 2017

See weather overviewHow to use our weather pages